Location: Asheville, NC
(35.6000°N, 82.5500°W)
Time: 03:17:44
(UTC-04:00)

ITAMSAT 1 - Pass Details

Date: 18 March 2018
Orbit: 784 x 796 km, 98.9° (Epoch: 19 June)

Event Time Altitude Azimuth Distance (km) Brightness Sun altitude
Rises 05:25:13 0° 14° (NNE) 3,299 11.3 -27.1°
Reaches altitude 10° 05:27:34 10° 16° (NNE) 2,364 10.5 -26.6°
Maximum altitude 05:32:48 77° 103° (ESE) 813 7.7 -25.6°
Enters shadow 05:34:27 44° 180° (S) 1,076 8.1 -25.3°
